| time (UTC) | temp F | wind direction | speed knots | gust knots | rain 1hr in | rain 24hr in | rain mn in | humidity % | barometer mb |
| 20260504081947 | 98 | 21 | 0.0 | 0.0 | 0.00 | 0.00 | 0.00 | 49 | 1006.0 |
| 20260504081446 | 97 | 129 | 5.2 | 6.1 | 0.00 | 0.00 | 0.00 | 50 | 1006.0 |
| 20260504080946 | 99 | 167 | 4.3 | 5.2 | 0.00 | 0.00 | 0.00 | 49 | 1007.0 |
| 20260504080448 | 97 | 241 | 1.7 | 2.6 | 0.00 | 0.00 | 0.00 | 49 | 1007.0 |
| 20260504050448 | 93 | 183 | 0.0 | 0.9 | 0.00 | 0.00 | 0.00 | 57 | 1010.0 |
| 20260504045946 | 93 | 202 | 0.9 | 0.9 | 0.00 | 0.00 | 0.00 | 57 | 1010.0 |
| 20260504045447 | 93 | 169 | 0.9 | 0.9 | 0.00 | 0.00 | 0.00 | 58 | 1010.0 |
| 20260504044948 | 91 | 168 | 1.7 | 2.6 | 0.00 | 0.00 | 0.00 | 60 | 1010.0 |
| 20260504044446 | 90 | 158 | 5.2 | 7.0 | 0.00 | 0.00 | 0.00 | 61 | 1010.0 |
| 20260504043947 | 92 | 184 | 3.5 | 5.2 | 0.00 | 0.00 | 0.00 | 59 | 1010.0 |
| 20260504043446 | 90 | 176 | 6.1 | 7.8 | 0.00 | 0.00 | 0.00 | 61 | 1010.0 |
| 20260504042947 | 90 | 134 | 2.6 | 3.5 | 0.00 | 0.00 | 0.00 | 62 | 1010.0 |
| 20260504042446 | 89 | 185 | 3.5 | 6.1 | 0.00 | 0.00 | 0.00 | 62 | 1010.0 |
| 20260504041946 | 90 | 200 | 2.6 | 5.2 | 0.00 | 0.00 | 0.00 | 62 | 1010.0 |
| 20260504041446 | 91 | 111 | 4.3 | 6.1 | 0.00 | 0.00 | 0.00 | 61 | 1010.0 |
| 20260504040946 | 91 | 175 | 2.6 | 2.6 | 0.00 | 0.00 | 0.00 | 58 | 1010.0 |
| 20260504040446 | 91 | 179 | 0.9 | 0.9 | 0.00 | 0.00 | 0.00 | 59 | 1010.0 |
| 20260504035946 | 90 | 101 | 0.0 | 0.0 | 0.00 | 0.00 | 0.00 | 60 | 1010.0 |
| 20260504035446 | 90 | 204 | 0.9 | 0.9 | 0.00 | 0.00 | 0.00 | 61 | 1010.0 |
| 20260504034947 | 90 | 143 | 3.5 | 3.5 | 0.00 | 0.00 | 0.00 | 60 | 1010.0 |
| 20260504034446 | 89 | 138 | 1.7 | 2.6 | 0.00 | 0.00 | 0.00 | 62 | 1010.0 |
| 20260504033947 | 90 | 184 | 0.0 | 0.9 | 0.00 | 0.00 | 0.00 | 61 | 1010.0 |
| 20260504033447 | 89 | 235 | 1.7 | 2.6 | 0.00 | 0.00 | 0.00 | 62 | 1011.0 |
| 20260504032946 | 88 | 246 | 0.9 | 0.9 | 0.00 | 0.00 | 0.00 | 62 | 1010.0 |
| 20260504032446 | 88 | 164 | 0.9 | 0.9 | 0.00 | 0.00 | 0.00 | 64 | 1010.0 |
| 20260504031950 | 88 | 183 | 0.9 | 1.7 | 0.00 | 0.00 | 0.00 | 63 | 1010.0 |
| 20260504031446 | 87 | 138 | 1.7 | 1.7 | 0.00 | 0.00 | 0.00 | 65 | 1010.0 |
| 20260504030946 | 86 | 249 | 1.7 | 1.7 | 0.00 | 0.00 | 0.00 | 66 | 1010.0 |
| 20260504030447 | 85 | 245 | 1.7 | 2.6 | 0.00 | 0.00 | 0.00 | 68 | 1010.0 |
| 20260504025946 | 87 | 159 | 1.7 | 2.6 | 0.00 | 0.00 | 0.00 | 66 | 1010.0 |
| 20260504025446 | 85 | 205 | 2.6 | 2.6 | 0.00 | 0.00 | 0.00 | 67 | 1010.0 |
| 20260504024947 | 84 | 178 | 1.7 | 2.6 | 0.00 | 0.00 | 0.00 | 69 | 1010.0 |
| 20260504024447 | 84 | 131 | 3.5 | 3.5 | 0.00 | 0.00 | 0.00 | 71 | 1010.0 |
| 20260504023946 | 84 | 140 | 0.0 | 0.9 | 0.00 | 0.00 | 0.00 | 71 | 1010.0 |
| 20260504023447 | 83 | 125 | 1.7 | 1.7 | 0.00 | 0.00 | 0.00 | 72 | 1010.0 |
| 20260504022946 | 83 | 181 | 0.0 | 0.0 | 0.00 | 0.00 | 0.00 | 71 | 1010.0 |
| 20260504022446 | 82 | 180 | 1.7 | 2.6 | 0.00 | 0.00 | 0.00 | 73 | 1010.0 |
| 20260504021946 | 82 | 155 | 0.0 | 0.9 | 0.00 | 0.00 | 0.00 | 73 | 1010.0 |
| 20260504021446 | 82 | 157 | 2.6 | 3.5 | 0.00 | 0.00 | 0.00 | 74 | 1010.0 |
| 20260504020947 | 81 | 159 | 1.7 | 1.7 | 0.00 | 0.00 | 0.00 | 75 | 1010.0 |
| 20260504020446 | 81 | 148 | 3.5 | 5.2 | 0.00 | 0.00 | 0.00 | 76 | 1010.0 |
| 20260504015947 | 81 | 125 | 3.5 | 6.1 | 0.00 | 0.00 | 0.00 | 76 | 1010.0 |
| 20260504015446 | 81 | 147 | 1.7 | 2.6 | 0.00 | 0.00 | 0.00 | 75 | 1009.0 |
| 20260504014946 | 80 | 167 | 3.5 | 3.5 | 0.00 | 0.00 | 0.00 | 76 | 1009.0 |
| 20260504014446 | 80 | 140 | 1.7 | 1.7 | 0.00 | 0.00 | 0.00 | 77 | 1009.0 |
| 20260504013946 | 80 | 121 | 0.0 | 0.0 | 0.00 | 0.00 | 0.00 | 76 | 1009.0 |
| 20260504013446 | 80 | 136 | 2.6 | 2.6 | 0.00 | 0.00 | 0.00 | 77 | 1009.0 |
| 20260504012946 | 80 | 128 | 2.6 | 2.6 | 0.00 | 0.00 | 0.00 | 76 | 1009.0 |
| 20260504012446 | 80 | 97 | 0.9 | 1.7 | 0.00 | 0.00 | 0.00 | 76 | 1009.0 |
| 20260504011947 | 80 | 97 | 1.7 | 2.6 | 0.00 | 0.00 | 0.00 | 77 | 1009.0 |
| 20260504011446 | 80 | 90 | 1.7 | 2.6 | 0.00 | 0.00 | 0.00 | 77 | 1009.0 |
| 20260504010946 | 79 | 79 | 0.9 | 0.9 | 0.00 | 0.00 | 0.00 | 78 | 1009.0 |
| 20260504010447 | 79 | 34 | 0.9 | 0.9 | 0.00 | 0.00 | 0.00 | 78 | 1009.0 |
| 20260504005947 | 79 | 79 | 0.0 | 0.9 | 0.00 | 0.00 | 0.00 | 78 | 1009.0 |
| 20260504005446 | 79 | 81 | 0.0 | 0.0 | 0.00 | 0.00 | 0.00 | 78 | 1009.0 |
| 20260504004946 | 79 | 65 | 0.0 | 0.0 | 0.00 | 0.00 | 0.00 | 79 | 1009.0 |
| 20260504004446 | 78 | 93 | 0.0 | 0.9 | 0.00 | 0.00 | 0.00 | 79 | 1009.0 |
| 20260504003946 | 78 | 56 | 4.3 | 7.0 | 0.00 | 0.00 | 0.00 | 80 | 1009.0 |
| 20260504003452 | 78 | 72 | 0.9 | 0.9 | 0.00 | 0.00 | 0.00 | 81 | 1008.0 |
| 20260504002946 | 78 | 42 | 1.7 | 2.6 | 0.00 | 0.00 | 0.00 | 81 | 1009.0 |
| 20260504002447 | 78 | 31 | 1.7 | 2.6 | 0.00 | 0.00 | 0.00 | 81 | 1008.0 |
| 20260504001946 | 78 | 47 | 0.9 | 0.9 | 0.00 | 0.00 | 0.00 | 81 | 1008.0 |
| 20260504001446 | 78 | 37 | 0.9 | 0.9 | 0.00 | 0.00 | 0.00 | 81 | 1008.0 |
| 20260504000946 | 78 | 17 | 1.7 | 2.6 | 0.00 | 0.00 | 0.00 | 81 | 1008.0 |
| 20260504000446 | 78 | 17 | 0.9 | 0.9 | 0.00 | 0.00 | 0.00 | 80 | 1008.0 |
| 20260503235946 | 79 | 72 | 1.7 | 1.7 | 0.00 | 0.00 | 0.00 | 78 | 1008.0 |
| 20260503235446 | 79 | 86 | 0.0 | 0.9 | 0.00 | 0.00 | 0.00 | 78 | 1008.0 |
| 20260503234946 | 79 | 107 | 1.7 | 2.6 | 0.00 | 0.00 | 0.00 | 78 | 1008.0 |
| 20260503234446 | 80 | 126 | 1.7 | 1.7 | 0.00 | 0.00 | 0.00 | 76 | 1008.0 |
| 20260503233946 | 80 | 143 | 0.9 | 0.9 | 0.00 | 0.00 | 0.00 | 75 | 1008.0 |
| 20260503233446 | 80 | 148 | 0.9 | 0.9 | 0.00 | 0.00 | 0.00 | 75 | 1008.0 |
| 20260503232947 | 80 | 148 | 1.7 | 1.7 | 0.00 | 0.00 | 0.00 | 75 | 1008.0 |
| 20260503232446 | 80 | 232 | 0.9 | 1.7 | 0.00 | 0.00 | 0.00 | 75 | 1008.0 |
| 20260503231946 | 80 | 233 | 0.0 | 0.0 | 0.00 | 0.00 | 0.00 | 75 | 1008.0 |
| 20260503231446 | 81 | 232 | 0.0 | 0.0 | 0.00 | 0.00 | 0.00 | 74 | 1008.0 |
| 20260503230946 | 81 | 232 | 0.0 | 0.0 | 0.00 | 0.00 | 0.00 | 74 | 1008.0 |
| 20260503230446 | 81 | 233 | 0.9 | 0.9 | 0.00 | 0.00 | 0.00 | 73 | 1008.0 |
| 20260503225946 | 81 | 233 | 0.0 | 0.9 | 0.00 | 0.00 | 0.00 | 73 | 1008.0 |
| 20260503225446 | 81 | 224 | 0.9 | 1.7 | 0.00 | 0.00 | 0.00 | 73 | 1008.0 |
| 20260503224946 | 81 | 240 | 0.0 | 0.9 | 0.00 | 0.00 | 0.00 | 74 | 1007.0 |
| 20260503224446 | 81 | 229 | 1.7 | 1.7 | 0.00 | 0.00 | 0.00 | 74 | 1007.0 |
| 20260503223946 | 81 | 235 | 0.9 | 1.7 | 0.00 | 0.00 | 0.00 | 74 | 1007.0 |
| 20260503223446 | 80 | 235 | 0.9 | 0.9 | 0.00 | 0.00 | 0.00 | 75 | 1007.0 |
| 20260503222946 | 80 | 225 | 1.7 | 2.6 | 0.00 | 0.00 | 0.00 | 75 | 1007.0 |
| 20260503222446 | 80 | 237 | 1.7 | 2.6 | 0.00 | 0.00 | 0.00 | 76 | 1007.0 |
| 20260503221946 | 80 | 236 | 0.9 | 0.9 | 0.00 | 0.00 | 0.00 | 76 | 1007.0 |
| 20260503221446 | 80 | 235 | 0.9 | 0.9 | 0.00 | 0.00 | 0.00 | 76 | 1007.0 |
| 20260503220947 | 80 | 183 | 0.0 | 0.0 | 0.00 | 0.00 | 0.00 | 76 | 1008.0 |
| 20260503220446 | 80 | 183 | 0.9 | 0.9 | 0.00 | 0.00 | 0.00 | 76 | 1008.0 |
| 20260503215946 | 79 | 183 | 0.0 | 0.0 | 0.00 | 0.00 | 0.00 | 76 | 1008.0 |
| 20260503215446 | 79 | 182 | 0.0 | 0.0 | 0.00 | 0.00 | 0.00 | 76 | 1008.0 |
| 20260503214946 | 80 | 183 | 0.0 | 0.9 | 0.00 | 0.00 | 0.00 | 75 | 1008.0 |
| 20260503214449 | 80 | 182 | 0.0 | 0.0 | 0.00 | 0.00 | 0.00 | 74 | 1008.0 |
| 20260503213946 | 79 | 182 | 0.0 | 0.0 | 0.00 | 0.00 | 0.00 | 75 | 1008.0 |
| 20260503213446 | 80 | 184 | 0.9 | 0.9 | 0.00 | 0.00 | 0.00 | 74 | 1008.0 |
| 20260503212947 | 79 | 185 | 0.0 | 0.0 | 0.00 | 0.00 | 0.00 | 75 | 1008.0 |
| 20260503212446 | 79 | 186 | 0.9 | 0.9 | 0.00 | 0.00 | 0.00 | 74 | 1008.0 |
| 20260503211946 | 79 | 191 | 0.9 | 0.9 | 0.00 | 0.00 | 0.00 | 75 | 1008.0 |
| 20260503211447 | 80 | 176 | 1.7 | 1.7 | 0.00 | 0.00 | 0.00 | 74 | 1008.0 |
| 20260503210946 | 80 | 244 | 0.9 | 0.9 | 0.00 | 0.00 | 0.00 | 74 | 1008.0 |
| 20260503210446 | 79 | 244 | 0.0 | 0.0 | 0.00 | 0.00 | 0.00 | 74 | 1008.0 |
| 20260503205947 | 80 | 243 | 0.0 | 0.0 | 0.00 | 0.00 | 0.00 | 74 | 1008.0 |
| 20260503205446 | 79 | 317 | 0.0 | 0.0 | 0.00 | 0.00 | 0.00 | 73 | 1009.0 |
| 20260503204946 | 79 | 317 | 0.0 | 0.0 | 0.00 | 0.00 | 0.00 | 74 | 1009.0 |
| 20260503204447 | 79 | 317 | 0.0 | 0.0 | 0.00 | 0.00 | 0.00 | 74 | 1009.0 |
| 20260503203946 | 80 | 269 | 0.9 | 1.7 | 0.00 | 0.00 | 0.00 | 73 | 1009.0 |
| 20260503203446 | 80 | 206 | 0.0 | 0.9 | 0.00 | 0.00 | 0.00 | 72 | 1009.0 |
| 20260503202946 | 80 | 196 | 0.9 | 0.9 | 0.00 | 0.00 | 0.00 | 73 | 1009.0 |
| 20260503202446 | 79 | 251 | 0.9 | 0.9 | 0.00 | 0.00 | 0.00 | 73 | 1009.0 |
| 20260503201947 | 79 | 237 | 0.9 | 1.7 | 0.00 | 0.00 | 0.00 | 73 | 1009.0 |
| 20260503201446 | 80 | 223 | 0.9 | 0.9 | 0.00 | 0.00 | 0.00 | 72 | 1009.0 |
| 20260503200946 | 80 | 185 | 0.0 | 0.9 | 0.00 | 0.00 | 0.00 | 72 | 1009.0 |
| 20260503200446 | 80 | 241 | 0.0 | 0.9 | 0.00 | 0.00 | 0.00 | 72 | 1009.0 |
| 20260503195946 | 80 | 282 | 0.9 | 1.7 | 0.00 | 0.00 | 0.00 | 72 | 1009.0 |
| 20260503195447 | 80 | 248 | 0.9 | 1.7 | 0.00 | 0.00 | 0.00 | 72 | 1009.0 |
| 20260503194946 | 80 | 239 | 1.7 | 1.7 | 0.00 | 0.00 | 0.00 | 72 | 1010.0 |
| 20260503194447 | 80 | 230 | 0.0 | 0.0 | 0.00 | 0.00 | 0.00 | 72 | 1010.0 |
| 20260503193947 | 80 | 230 | 0.0 | 0.9 | 0.00 | 0.00 | 0.00 | 72 | 1010.0 |
| 20260503193446 | 80 | 160 | 0.0 | 0.9 | 0.00 | 0.00 | 0.00 | 71 | 1010.0 |
| 20260503192946 | 80 | 160 | 0.0 | 0.0 | 0.00 | 0.00 | 0.00 | 71 | 1010.0 |
| 20260503192446 | 80 | 159 | 0.0 | 0.0 | 0.00 | 0.00 | 0.00 | 71 | 1010.0 |
| 20260503191521 | 80 | 158 | 0.9 | 0.9 | 0.00 | 0.00 | 0.00 | 71 | 1010.0 |
| 20260503190946 | 80 | 153 | 0.9 | 0.9 | 0.00 | 0.00 | 0.00 | 71 | 1010.0 |
| 20260503190446 | 80 | 147 | 0.9 | 0.9 | 0.00 | 0.00 | 0.00 | 72 | 1010.0 |
| 20260503185946 | 80 | 76 | 2.6 | 2.6 | 0.00 | 0.00 | 0.00 | 72 | 1010.0 |
| 20260503185446 | 80 | 100 | 0.9 | 0.9 | 0.00 | 0.00 | 0.00 | 72 | 1010.0 |
| 20260503184946 | 80 | 147 | 1.7 | 1.7 | 0.00 | 0.00 | 0.00 | 72 | 1010.0 |
| 20260503184446 | 80 | 162 | 0.9 | 0.9 | 0.00 | 0.00 | 0.00 | 72 | 1011.0 |
| 20260503183946 | 80 | 51 | 0.9 | 1.7 | 0.00 | 0.00 | 0.00 | 73 | 1011.0 |
| 20260503183446 | 80 | 75 | 2.6 | 5.2 | 0.00 | 0.00 | 0.00 | 73 | 1011.0 |
| 20260503182946 | 79 | 97 | 0.9 | 1.7 | 0.00 | 0.00 | 0.00 | 73 | 1011.0 |
| 20260503182446 | 79 | 104 | 0.0 | 0.9 | 0.00 | 0.00 | 0.00 | 75 | 1011.0 |
| 20260503181947 | 80 | 107 | 5.2 | 7.0 | 0.00 | 0.00 | 0.00 | 74 | 1011.0 |
| 20260503181447 | 80 | 32 | 5.2 | 7.8 | 0.00 | 0.00 | 0.00 | 73 | 1011.0 |
| 20260503180947 | 80 | 91 | 6.1 | 7.8 | 0.00 | 0.00 | 0.00 | 75 | 1011.0 |
| 20260503180446 | 79 | 72 | 6.1 | 8.7 | 0.00 | 0.00 | 0.00 | 76 | 1011.0 |
| 20260503175947 | 80 | 83 | 7.8 | 11.3 | 0.00 | 0.00 | 0.00 | 76 | 1011.0 |
| 20260503175447 | 80 | 53 | 8.7 | 12.2 | 0.00 | 0.00 | 0.00 | 76 | 1012.0 |
| 20260503174951 | 81 | 117 | 9.6 | 13.0 | 0.00 | 0.00 | 0.00 | 75 | 1011.0 |
| 20260503174446 | 81 | 133 | 7.0 | 8.7 | 0.00 | 0.00 | 0.00 | 75 | 1011.0 |
| 20260503173946 | 81 | 35 | 4.3 | 5.2 | 0.00 | 0.00 | 0.00 | 75 | 1011.0 |
| 20260503173446 | 81 | 111 | 7.8 | 11.3 | 0.00 | 0.00 | 0.00 | 75 | 1011.0 |
| 20260503172946 | 81 | 95 | 7.0 | 11.3 | 0.00 | 0.00 | 0.00 | 74 | 1011.0 |
| 20260503172447 | 82 | 38 | 4.3 | 8.7 | 0.00 | 0.00 | 0.00 | 72 | 1011.0 |
| 20260503171946 | 82 | 114 | 5.2 | 6.1 | 0.00 | 0.00 | 0.00 | 72 | 1010.0 |
| 20260503171446 | 81 | 96 | 5.2 | 7.0 | 0.00 | 0.00 | 0.00 | 73 | 1010.0 |
| 20260503170946 | 81 | 132 | 7.0 | 8.7 | 0.00 | 0.00 | 0.00 | 73 | 1010.0 |
| 20260503170446 | 81 | 116 | 6.1 | 7.0 | 0.00 | 0.00 | 0.00 | 73 | 1010.0 |
| 20260503150946 | 89 | 247 | 0.9 | 1.7 | 0.00 | 0.00 | 0.00 | 54 | 1007.0 |
| 20260503150447 | 89 | 199 | 1.7 | 1.7 | 0.00 | 0.00 | 0.00 | 54 | 1007.0 |
| 20260503130946 | 96 | 208 | 3.5 | 3.5 | 0.00 | 0.00 | 0.00 | 47 | 1005.0 |
| 20260503130449 | 96 | 199 | 2.6 | 3.5 | 0.00 | 0.00 | 0.00 | 46 | 1005.0 |
| 20260503110446 | 104 | 231 | 1.7 | 2.6 | 0.00 | 0.00 | 0.00 | 38 | 1004.0 |